Wind_Speed
6 6 7 8 8 7 9 8 6 5 7 10 10 14 15 16 16 15 19 18 17 23 21 25 23 25 28 30 32 32 34 32 32 33 31 29 31 33 33 33 37 38 38
9 9 8 7 7 6 5 5 6 8 12 15 17 19 23 21 23 24 22 19 22 23 26 26 27 32 33 31 27 26 24 24 26 29 31 32 33 34 35 36 37 38 39
8 7 6 6 6 6 7 8 10 14 18 20 23 25 27 28 27 27 26 24 25 28 28 27 29 27 23 22 21 22 24 26 28 30 31 32 33 35 36 37 38 39 40
6 6 6 7 8 8 9 12 14 17 20 24 25 23 21 20 20 21 20 21 22 24 23 23 21 20 20 23 25 25 26 27 28 29 30 31 32 33 35 36 38 40 43
9 10 11 11 12 13 14 17 17 20 24 25 21 18 15 13 13 15 16 17 18 18 18 18 18 21 22 24 26 27 28 28 29 29 31 32 34 35 38 40 42 44 46
13 14 15 16 18 19 18 15 17 23 22 19 15 14 13 12 12 13 14 14 14 16 17 18 20 23 24 25 27 27 28 28 30 31 33 35 36 38 40 43 45 48 50
17 20 19 20 19 18 17 17 21 17 13 12 11 11 11 11 11 12 12 14 16 17 18 21 22 24 25 26 27 27 28 30 32 33 35 37 40 42 46 49 51 53 55
21 21 23 23 22 19 18 19 16 12 11 10 10 11 10 10 11 12 13 15 16 18 19 21 22 23 24 25 26 27 29 31 33 35 38 41 45 48 51 54 58 61 62
23 21 22 19 16 17 17 15 13 11 10 9 9 9 9 9 12 14 16 16 17 19 19 20 21 21 22 24 26 28 30 33 36 40 42 45 49 53 56 59 61 65 68
20 20 19 16 16 15 14 12 12 11 10 9 8 8 9 11 13 16 16 17 18 18 19 20 20 21 23 25 28 31 33 36 39 42 45 49 52 55 58 61 65 69 73
20 19 18 15 15 13 12 12 11 11 11 10 9 9 10 12 14 16 17 17 18 18 18 18 20 23 25 26 29 32 35 38 41 44 47 51 55 58 61 65 70 75 78
20 18 16 14 13 12 12 12 11 11 11 10 9 10 11 12 13 15 16 17 17 17 16 18 20 22 25 28 31 34 37 41 45 48 51 55 59 62 66 72 77 79 78
20 17 15 14 13 13 13 13 13 11 11 10 11 11 12 13 13 13 15 15 15 16 17 19 21 24 27 29 32 36 40 44 47 49 52 57 62 66 71 75 76 72 66
18 17 15 15 14 14 14 14 12 11 11 11 12 12 12 13 13 13 13 14 14 16 18 20 22 25 28 31 36 38 41 44 47 51 55 61 65 69 71 71 65 61 59
19 17 16 16 16 16 15 14 13 13 13 12 12 13 13 13 13 13 12 13 13 15 18 21 23 27 30 33 37 40 43 46 50 53 58 63 64 64 61 58 56 55 53
19 19 18 17 17 17 16 15 14 14 13 13 12 12 14 14 13 13 12 13 14 17 20 23 27 29 30 33 36 40 44 47 51 56 60 61 59 54 51 53 53 52 50
19 20 20 19 18 18 16 16 15 14 13 12 13 13 13 14 14 14 14 14 16 18 21 24 26 29 31 34 36 40 45 49 53 58 60 57 51 47 50 52 50 48 47
20 21 21 20 19 18 18 17 16 14 12 12 12 13 13 14 15 15 16 17 18 20 22 24 28 31 34 37 40 42 46 51 56 59 60 54 48 46 51 51 49 44 44
22 22 22 21 21 20 19 18 16 14 13 12 12 13 13 14 15 15 17 18 20 22 24 26 29 32 34 37 40 43 48 52 57 60 57 53 49 49 51 50 46 43 45
24 23 23 23 22 21 20 18 16 14 13 13 12 13 14 13 14 14 16 18 20 22 25 27 30 34 37 40 44 48 50 53 58 60 58 55 49 51 51 48 45 46 47
25 24 24 24 23 22 20 17 16 14 13 13 13 13 14 14 13 14 15 17 18 21 24 27 31 35 39 42 47 51 54 57 59 64 60 56 52 53 52 47 46 46 48
26 26 25 24 23 21 20 18 16 14 14 13 13 14 14 14 13 15 15 16 18 21 25 30 34 38 41 45 49 53 57 61 65 63 62 56 53 52 50 45 46 48 51
26 25 25 24 23 22 20 18 16 15 15 14 14 14 14 14 14 14 16 18 20 23 27 31 35 39 43 47 51 54 57 58 56 60 60 55 52 51 51 46 50 53 51
27 25 25 24 23 22 21 19 17 16 16 15 15 14 14 13 15 14 16 19 21 24 27 32 36 40 44 48 51 54 56 57 51 52 55 58 57 53 53 48 53 51 46
28 27 26 25 24 23 21 20 18 17 16 16 15 14 13 13 13 13 15 17 19 24 27 31 35 38 43 47 50 51 53 57 59 56 58 55 57 55 55 52 53 49 46
28 28 27 26 26 24 22 20 19 18 17 16 15 13 12 13 11 12 13 14 16 19 23 28 32 36 40 43 47 50 53 54 55 58 57 55 55 60 60 51 51 50 48
Wind_Direction
241 247 264 257 245 269 244 244 266 291 290 292 289 288 289 285 288 270 281 278 285 287 296 285 294 293 288 290 294 293 293 296 298 301 301 297 297 297 297 295 292 293 296
216 226 234 235 254 263 253 265 284 296 294 294 294 283 285 282 279 284 281 271 280 277 286 288 290 292 291 293 296 298 300 303 304 307 306 304 303 302 301 300 298 297 296
218 216 232 225 227 239 247 263 276 289 293 293 293 288 284 282 282 286 287 276 272 284 287 287 287 291 295 300 303 304 303 303 301 300 301 302 302 302 303 302 303 302 300
233 249 251 253 258 259 277 283 284 291 294 294 294 293 294 288 285 286 287 288 288 288 290 291 296 297 300 301 302 305 309 308 307 306 306 306 307 308 309 308 306 305 303
256 270 278 281 277 279 287 289 288 291 293 288 286 291 297 295 290 289 289 291 290 290 292 296 296 297 304 310 314 316 314 312 311 313 314 314 313 312 311 310 308 307 305
264 270 281 279 280 281 288 286 283 286 279 274 273 277 283 285 284 283 285 286 288 292 295 299 306 313 316 317 316 314 312 313 315 316 315 313 312 311 310 309 308 307 307
271 276 282 276 274 275 277 279 284 275 259 258 266 273 276 276 277 280 282 287 294 298 305 311 313 314 315 314 312 312 313 315 315 315 313 313 312 310 310 310 309 309 308
278 275 277 275 270 267 272 281 272 252 246 251 257 261 267 275 279 282 285 292 298 304 307 309 311 312 310 309 310 312 316 317 314 311 311 312 312 311 310 310 310 309 308
278 274 279 274 265 267 275 268 251 246 250 254 262 271 279 289 290 292 294 298 301 302 305 308 309 309 309 312 315 317 314 312 312 314 316 316 315 313 313 313 312 311 311
280 277 276 272 266 268 262 242 241 251 258 264 269 280 288 292 293 294 296 296 299 303 306 309 311 312 315 317 316 316 315 315 317 318 320 318 316 315 315 316 315 314 312
279 276 275 270 266 258 240 231 232 244 257 265 275 283 289 289 289 292 295 299 301 303 306 309 313 317 318 315 314 317 319 320 321 321 320 319 318 318 319 317 316 315 313
282 278 276 272 258 245 233 232 234 239 247 259 270 276 281 285 287 291 295 296 299 303 306 312 315 314 315 317 320 323 323 323 324 324 324 322 321 321 322 322 319 317 314
277 278 274 263 250 236 231 230 235 244 253 260 267 274 283 292 295 294 296 300 304 308 312 314 316 318 320 322 325 326 327 327 325 325 324 323 324 326 325 321 319 316 316
272 271 266 258 245 235 230 232 238 248 255 262 273 283 292 293 295 297 299 299 301 308 311 314 316 321 325 328 328 328 330 327 324 327 328 327 329 328 326 322 319 318 318
266 263 258 247 239 234 234 237 242 248 255 266 277 287 293 296 301 300 298 299 302 304 310 314 322 326 330 330 329 331 329 327 328 331 332 332 334 330 325 323 323 322 319
262 262 253 241 236 235 235 239 244 252 262 272 282 290 296 301 302 303 305 305 307 312 317 323 326 331 332 332 334 333 329 330 332 335 335 336 336 331 327 328 327 325 321
259 257 248 239 234 233 236 241 248 254 262 275 286 293 300 305 308 310 311 311 315 321 325 328 332 332 332 335 336 333 332 333 336 338 338 341 339 333 331 333 331 327 321
256 251 243 236 234 234 237 242 248 256 267 276 286 295 303 307 309 312 313 316 320 323 327 331 332 335 338 338 336 336 337 339 341 341 342 343 343 336 338 336 333 328 324
251 246 240 236 231 232 235 240 248 257 266 276 286 293 302 304 307 312 313 319 323 326 331 335 337 339 339 337 336 339 341 343 343 342 343 348 347 342 343 338 335 331 329
246 240 237 233 232 233 235 240 247 254 263 273 284 290 295 298 303 311 313 319 322 329 334 339 339 340 341 341 341 340 344 346 343 344 348 348 350 346 346 340 335 339 336
241 237 234 232 232 234 237 240 245 253 262 271 279 285 290 296 302 307 309 316 324 332 336 338 342 342 343 343 344 347 347 346 347 346 350 348 354 349 349 343 341 340 338
238 236 235 232 230 232 237 240 245 253 261 267 274 281 287 293 300 301 310 318 330 337 339 343 345 347 347 349 350 350 348 348 349 348 347 351 352 351 350 346 344 344 342
235 235 235 232 232 233 237 239 245 251 258 265 270 276 283 289 297 305 317 326 336 343 346 347 346 348 351 353 352 352 350 351 351 346 346 350 350 351 355 351 350 350 346
233 234 234 232 233 233 236 239 243 248 254 260 265 274 282 293 298 315 325 332 342 345 348 347 350 353 354 353 353 352 351 349 350 347 347 351 350 353 354 355 356 353 349
230 231 232 231 232 234 236 240 243 246 249 254 262 269 280 289 302 316 324 332 339 344 347 349 353 355 354 353 352 351 349 350 352 353 350 352 349 352 354 358 0 356 357
229 228 230 231 232 232 234 238 242 246 248 251 256 265 276 283 295 308 317 327 335 341 345 352 354 354 354 353 352 352 352 352 352 352 352 349 351 351 351 0 1 360 0
Height
3171 3172 3173 3173 3174 3173 3173 3173 3173 3173 3172 3171 3172 3171 3171 3170 3170 3169 3168 3167 3166 3164 3163 3161 3161 3158 3157 3155 3153 3151 3149 3146 3144 3142 3140 3137 3135 3133 3130 3128 3126 3123 3119
3172 3172 3173 3173 3172 3172 3172 3172 3172 3172 3170 3170 3170 3169 3167 3167 3165 3166 3164 3163 3162 3162 3160 3159 3157 3153 3151 3151 3148 3146 3144 3142 3140 3137 3134 3132 3129 3127 3124 3121 3119 3116 3113
3171 3171 3172 3172 3172 3171 3172 3172 3171 3170 3168 3166 3166 3165 3163 3162 3161 3160 3160 3159 3159 3157 3156 3154 3153 3150 3148 3147 3145 3143 3141 3139 3136 3133 3130 3127 3124 3121 3118 3115 3111 3108 3104
3168 3168 3169 3169 3169 3169 3170 3170 3169 3167 3164 3162 3161 3160 3158 3157 3157 3156 3155 3155 3154 3153 3151 3150 3149 3147 3146 3144 3141 3139 3136 3134 3131 3128 3124 3121 3118 3115 3111 3108 3104 3101 3097
3165 3166 3166 3166 3166 3166 3166 3166 3164 3163 3160 3158 3157 3157 3156 3155 3154 3154 3153 3152 3151 3150 3148 3147 3147 3145 3143 3140 3136 3134 3131 3127 3124 3121 3118 3115 3111 3108 3104 3100 3096 3092 3087
3162 3163 3163 3163 3163 3162 3163 3162 3162 3160 3158 3156 3156 3155 3155 3154 3153 3152 3151 3150 3149 3148 3147 3145 3143 3140 3138 3135 3132 3129 3126 3122 3119 3115 3112 3109 3106 3102 3098 3093 3088 3083 3078
3159 3160 3160 3160 3160 3160 3160 3160 3158 3157 3156 3155 3155 3154 3153 3152 3151 3150 3149 3148 3147 3145 3143 3141 3139 3136 3134 3131 3128 3125 3122 3118 3114 3111 3107 3104 3099 3095 3089 3084 3078 3072 3066
3156 3156 3157 3157 3156 3157 3157 3156 3154 3154 3154 3154 3154 3153 3152 3152 3149 3148 3147 3146 3144 3142 3140 3138 3136 3134 3131 3128 3125 3121 3117 3114 3110 3107 3102 3097 3092 3086 3080 3073 3066 3058 3051
3153 3152 3152 3152 3152 3152 3152 3152 3151 3151 3152 3152 3152 3152 3150 3149 3147 3146 3144 3143 3141 3139 3137 3135 3133 3131 3129 3126 3121 3117 3113 3109 3104 3099 3094 3089 3083 3076 3069 3061 3053 3044 3035
3148 3148 3147 3148 3148 3148 3148 3149 3149 3149 3149 3149 3149 3149 3148 3148 3145 3143 3142 3140 3138 3136 3134 3132 3130 3128 3125 3121 3116 3112 3108 3103 3097 3092 3086 3080 3073 3065 3058 3050 3041 3030 3019
3143 3143 3143 3143 3144 3144 3145 3146 3147 3147 3147 3147 3147 3147 3146 3146 3144 3141 3139 3138 3136 3134 3132 3130 3127 3124 3121 3117 3113 3108 3102 3096 3090 3084 3078 3071 3062 3055 3046 3037 3025 3011 2998
3138 3138 3139 3140 3140 3141 3143 3144 3145 3146 3146 3145 3145 3145 3144 3144 3142 3139 3137 3135 3134 3132 3130 3127 3125 3122 3117 3113 3107 3102 3096 3089 3082 3076 3069 3060 3051 3042 3031 3017 3003 2990 2978
3134 3134 3135 3136 3137 3139 3140 3141 3142 3143 3144 3143 3143 3143 3142 3140 3139 3137 3134 3132 3130 3129 3126 3124 3120 3117 3112 3108 3102 3096 3089 3081 3074 3069 3061 3050 3039 3028 3014 3001 2989 2977 2966
3130 3131 3132 3133 3134 3136 3137 3139 3139 3140 3140 3140 3140 3139 3138 3138 3136 3134 3133 3131 3128 3126 3123 3120 3117 3112 3108 3102 3096 3089 3082 3076 3069 3061 3050 3036 3025 3013 2999 2988 2976 2966 2956
3127 3127 3128 3129 3131 3133 3135 3136 3137 3137 3137 3137 3137 3136 3135 3134 3132 3131 3130 3129 3126 3123 3120 3117 3113 3108 3102 3096 3090 3082 3077 3071 3061 3052 3039 3024 3013 3001 2991 2980 2968 2957 2946
3123 3124 3125 3126 3127 3130 3131 3133 3134 3134 3134 3134 3133 3132 3131 3130 3129 3128 3126 3125 3123 3119 3116 3111 3107 3102 3098 3092 3085 3077 3072 3062 3053 3041 3028 3015 3004 2994 2984 2972 2960 2948 2938
3118 3120 3122 3123 3124 3126 3128 3129 3130 3130 3130 3129 3129 3128 3127 3126 3124 3123 3121 3120 3118 3115 3111 3106 3102 3098 3093 3086 3081 3074 3065 3055 3045 3032 3019 3006 2998 2988 2976 2964 2952 2941 2930
3114 3116 3117 3119 3121 3123 3124 3126 3127 3126 3126 3125 3125 3124 3123 3121 3119 3117 3116 3114 3112 3109 3106 3102 3097 3092 3085 3079 3073 3067 3057 3046 3034 3023 3011 3000 2992 2981 2969 2955 2944 2933 2923
3109 3111 3112 3114 3116 3119 3121 3122 3122 3122 3122 3121 3121 3120 3119 3118 3116 3114 3112 3109 3106 3103 3099 3095 3090 3086 3081 3075 3068 3061 3050 3040 3027 3017 3005 2993 2984 2972 2961 2948 2936 2927 2916
3103 3106 3108 3110 3112 3114 3117 3118 3118 3118 3118 3118 3117 3117 3116 3115 3114 3111 3109 3106 3103 3100 3095 3091 3086 3081 3075 3067 3060 3051 3042 3033 3021 3009 2998 2986 2979 2966 2954 2942 2931 2919 2907
3097 3100 3103 3105 3108 3111 3112 3113 3114 3114 3114 3114 3114 3114 3113 3112 3110 3109 3107 3104 3101 3097 3092 3088 3082 3075 3069 3061 3052 3042 3033 3024 3013 2997 2989 2978 2971 2960 2948 2936 2925 2915 2903
3091 3094 3098 3101 3104 3106 3108 3109 3110 3109 3109 3110 3111 3111 3110 3109 3107 3106 3103 3100 3097 3093 3088 3082 3076 3070 3063 3056 3048 3036 3024 3012 3000 2994 2981 2973 2964 2956 2946 2933 2922 2909 2896
3086 3089 3092 3095 3098 3101 3103 3104 3105 3105 3106 3107 3107 3107 3107 3106 3104 3102 3098 3096 3092 3088 3083 3078 3072 3066 3059 3050 3042 3031 3020 3010 3000 2987 2976 2970 2962 2953 2941 2929 2916 2902 2889
3081 3084 3087 3090 3093 3096 3098 3099 3100 3101 3102 3103 3103 3103 3103 3101 3100 3097 3094 3091 3087 3084 3079 3075 3069 3061 3053 3046 3037 3027 3016 3008 3002 2988 2975 2961 2951 2947 2937 2925 2911 2899 2887
3075 3078 3082 3085 3088 3090 3093 3095 3096 3098 3099 3099 3099 3099 3099 3098 3096 3093 3091 3089 3085 3081 3077 3071 3066 3059 3053 3043 3034 3026 3017 3004 2992 2982 2968 2959 2947 2940 2932 2919 2908 2896 2885
3070 3072 3076 3079 3082 3085 3087 3090 3092 3093 3094 3095 3095 3095 3095 3095 3093 3091 3090 3087 3085 3081 3077 3071 3065 3059 3053 3044 3034 3023 3010 2999 2989 2977 2966 2959 2947 2930 2921 2918 2907 2894 2883